Olympia, WA
on Friday, December 21, 2012

Friday
Previous Day Next Day
Daily Summary
 ActualAverageRecord
Temperature
Mean Temperature °F 38°F  
Max Temperature 46°F 44°F 57°F (1980)
Min Temperature 26°F 32°F 0°F (1990)
Degree Days
Heating Degree Days 29 27  
Month to date heating degree days 505 556  
Since 1 July heating degree days 1892 2001  
Cooling Degree Days 0 0  
Month to date cooling degree days 0 0  
Year to date cooling degree days 82 106  
Moisture
Dew Point 32°F   
Average Humidity 88    
Maximum Humidity 100    
Minimum Humidity 76    
Precipitation
Precipitation 0.07 in 0.23 in 1.69 in (1955)
Month to date precipitation 8.32 5.16  
Year to date precipitation 58.17 47.70  
Wind
Wind Speed 4 mph   
Max Wind Speed 16 mph   
Max Gust Speed 20 mph   
Visibility 4 miles   
Events Fog , Rain   

Key: T is trace of precipitation, MM is missing value
Source: NWS Daily Summary
Time(PST)TemperatureDew PointHumidity Pressure Visibility Wind DirectionWind SpeedGust SpeedPrecipitationEvents Conditions
12:03 AM 28.0°F 27.0°F 96% 29.81 in 0.2 miles Calm Calm - N/A Fog Light Freezing Fog
12:11 AM 27.0°F 27.0°F 100% 29.80 in 0.2 miles Calm Calm - N/A Fog Light Freezing Fog
12:37 AM 28.0°F 26.1°F 92% 29.80 in 0.5 miles Calm Calm - N/A Fog Light Freezing Fog
12:54 AM 28.0°F 28.0°F 100% 29.81 in 0.5 miles East 4.6 mph - N/A Fog Light Freezing Fog
12:56 AM 28.9°F 28.0°F 96% 29.80 in 1.0 miles ENE 4.6 mph - N/A   Mostly Cloudy
1:00 AM 28.9°F 28.9°F 100% 29.80 in 2.0 miles ENE 3.5 mph - N/A   Mostly Cloudy
1:07 AM 27.0°F 27.0°F 100% 29.80 in 1.2 miles Calm Calm - N/A   Mostly Cloudy
1:17 AM 27.0°F 26.1°F 96% 29.79 in 2.0 miles Calm Calm - N/A   Mostly Cloudy
1:27 AM 28.0°F 27.0°F 96% 29.79 in 3.0 miles NE 3.5 mph - N/A   Scattered Clouds
1:48 AM 28.4°F 26.6°F 93% 29.79 in 1.5 miles Calm Calm - N/A   Partly Cloudy
1:50 AM 28.4°F 26.6°F 93% 29.78 in 1.0 miles Calm Calm - N/A   Mist
1:54 AM 28.0°F 27.0°F 96% 29.79 in 0.8 miles Calm Calm - N/A   Mist
2:09 AM 28.0°F 27.0°F 96% 29.78 in 1.2 miles Calm Calm - N/A   Partly Cloudy
2:12 AM 28.0°F 27.0°F 96% 29.78 in 2.5 miles Calm Calm - N/A   Partly Cloudy
2:19 AM 28.0°F 27.0°F 96% 29.79 in 5.0 miles Calm Calm - N/A   Partly Cloudy
2:54 AM 27.0°F 26.1°F 96% 29.79 in 6.0 miles Calm Calm - N/A   Clear
3:54 AM 30.0°F 28.9°F 96% 29.77 in 5.0 miles NNE 3.5 mph - N/A   Clear
4:54 AM 32.0°F 30.9°F 96% 29.75 in 6.0 miles NW 3.5 mph - N/A   Clear
5:17 AM 32.0°F 30.9°F 96% 29.74 in 5.0 miles Calm Calm - N/A   Mostly Cloudy
5:31 AM 32.0°F 32.0°F 100% 29.74 in 5.0 miles Calm Calm - N/A   Overcast
5:47 AM 32.0°F 30.9°F 96% 29.74 in 4.0 miles Calm Calm - 0.00 in   Overcast
5:54 AM 32.0°F 32.0°F 100% 29.75 in 2.5 miles Calm Calm - 0.00 in   Overcast
5:57 AM 32.0°F 32.0°F 100% 29.74 in 1.2 miles Calm Calm - 0.00 in   Overcast
6:06 AM 32.0°F 32.0°F 100% 29.74 in 0.5 miles South 4.6 mph - 0.00 in Fog , Rain Light Freezing Rain
6:23 AM 32.0°F 32.0°F 100% 29.74 in 0.2 miles SE 3.5 mph - 0.01 in Fog , Rain Light Freezing Rain
6:30 AM 32.0°F 32.0°F 100% 29.74 in 0.8 miles Calm Calm - 0.01 in Rain Light Freezing Rain
6:32 AM 32.0°F 32.0°F 100% 29.73 in 1.0 miles Calm Calm - 0.01 in Rain Light Freezing Rain
6:41 AM 32.0°F 32.0°F 100% 29.73 in 0.5 miles Calm Calm - 0.01 in Fog , Rain Light Freezing Rain
6:50 AM 32.0°F 32.0°F 100% 29.73 in 0.5 miles Calm Calm - 0.01 in Fog , Rain Light Freezing Rain
6:54 AM 32.0°F 32.0°F 100% 29.73 in 0.5 miles Calm Calm - 0.01 in Fog , Rain Light Freezing Rain
7:09 AM 33.1°F 32.0°F 96% 29.71 in 1.0 miles Calm Calm - 0.00 in   Overcast
7:15 AM 33.1°F 33.1°F 100% 29.72 in 2.0 miles Calm Calm - 0.00 in   Overcast
7:23 AM 32.0°F 32.0°F 100% 29.72 in 2.0 miles SSE 4.6 mph - 0.00 in   Overcast
7:34 AM 33.1°F 32.0°F 96% 29.73 in 1.8 miles South 4.6 mph - 0.00 in   Overcast
7:50 AM 32.0°F 32.0°F 100% 29.74 in 2.5 miles SSW 5.8 mph - 0.00 in   Overcast
7:54 AM 32.0°F 32.0°F 100% 29.74 in 2.0 miles South 4.6 mph - 0.00 in   Overcast
8:16 AM 33.1°F 33.1°F 100% 29.73 in 0.8 miles Calm Calm - 0.00 in   Light Drizzle
8:43 AM 33.1°F 33.1°F 100% 29.73 in 0.5 miles Calm Calm - 0.01 in Fog Light Drizzle
8:52 AM 33.8°F 33.8°F 100% 29.73 in 0.5 miles Calm Calm - 0.02 in Fog Light Drizzle
8:54 AM 33.1°F 33.1°F 100% 29.74 in 0.5 miles Calm Calm - 0.02 in Fog Light Drizzle
9:23 AM 33.1°F 33.1°F 100% 29.74 in 0.8 miles Calm Calm - 0.00 in   Light Drizzle
9:30 AM 33.1°F 33.1°F 100% 29.74 in 0.8 miles Calm Calm - 0.00 in   Light Drizzle
9:35 AM 33.1°F 33.1°F 100% 29.74 in 0.8 miles Calm Calm - 0.00 in   Light Drizzle
9:54 AM 34.0°F 34.0°F 100% 29.77 in 0.8 miles South 3.5 mph - 0.00 in   Light Drizzle
10:00 AM 34.0°F 34.0°F 100% 29.75 in 7.0 miles South 4.6 mph - 0.00 in Fog Shallow Fog
10:07 AM 34.0°F 34.0°F 100% 29.75 in 7.0 miles South 5.8 mph - 0.00 in Fog Shallow Fog
10:54 AM 37.0°F 36.0°F 96% 29.76 in 7.0 miles WSW 4.6 mph - 0.00 in   Mostly Cloudy
11:54 AM 41.0°F 39.0°F 93% 29.75 in 10.0 miles WSW 4.6 mph - N/A   Overcast
12:54 PM 45.0°F 39.0°F 80% 29.75 in 10.0 miles SSW 13.8 mph 18.4 mph N/A   Overcast
1:54 PM 46.0°F 39.0°F 76% 29.73 in 10.0 miles South 11.5 mph - N/A   Partly Cloudy
2:54 PM 46.0°F 39.0°F 76% 29.74 in 10.0 miles SSW 3.5 mph - N/A   Overcast
3:54 PM 43.0°F 39.0°F 86% 29.74 in 10.0 miles SSW 3.5 mph - N/A   Scattered Clouds
4:54 PM 41.0°F 39.0°F 93% 29.73 in 10.0 miles Calm Calm - N/A   Overcast
5:54 PM 39.9°F 37.9°F 93% 29.71 in 9.0 miles Calm Calm - N/A   Overcast
6:54 PM 39.9°F 39.0°F 97% 29.70 in 10.0 miles North 3.5 mph - 0.00 in   Overcast
7:54 PM 39.9°F 37.9°F 93% 29.69 in 10.0 miles East 3.5 mph - N/A   Overcast
8:54 PM 39.0°F 37.9°F 96% 29.70 in 7.0 miles East 3.5 mph - 0.00 in Rain Light Rain
9:54 PM 39.9°F 37.9°F 93% 29.69 in 7.0 miles NNE 3.5 mph - 0.03 in Rain Light Rain
10:54 PM 39.0°F 37.9°F 96% 29.67 in 5.0 miles North 4.6 mph - 0.01 in Rain Light Rain
11:54 PM 39.0°F 37.9°F 96% 29.65 in 5.0 miles North 3.5 mph - 0.00 in   Overcast
Moon Phase
Dec. 21 Dec. 28 Jan. 04 Jan. 11 Jan. 18
Sunrise:07:54 AM (PST) Moon Rise:12:29 PM (PST)12/21
Sunset:04:25 PM (PST) Moon Set:01:30 AM (PST)12/21

Copyright © 2014 The Weather Underground, Inc.